K9BM Weather Reports


time (UTC)temp
F
wind
direction
speed
knots
gust
knots
rain 1hr
in
rain 24hr
in
rain mn
in
humidity
%
barometer
mb
20260506155506 43 266 12.2 17.4 0.00 0.01 0.00 45 1018.7
20260506155006 43 276 13.9 17.4 0.00 0.01 0.00 43 1018.7
20260506154506 43 268 12.2 20.0 0.00 0.01 0.00 47 1018.8
20260506154007 42 264 12.2 20.0 0.00 0.01 0.00 47 1018.8
20260506153506 42 259 12.2 18.2 0.00 0.01 0.00 47 1018.9
20260506153006 42 257 11.3 15.6 0.00 0.01 0.00 48 1018.8
20260506152506 42 267 10.4 14.8 0.00 0.01 0.00 51 1018.9
20260506151505 41 255 11.3 14.8 0.00 0.01 0.00 49 1018.9
20260506151006 41 255 8.7 14.8 0.00 0.01 0.00 53 1019.0
20260506150005 39 258 8.7 12.2 0.00 0.01 0.00 59 1019.1
20260506145506 39 260 7.8 10.4 0.00 0.01 0.00 62 1019.2
20260506144006 37 271 7.8 12.2 0.00 0.01 0.00 66 1019.4
20260506143506 37 273 8.7 12.2 0.00 0.01 0.00 66 1019.5
20260506142505 36 258 6.1 10.4 0.00 0.01 0.00 67 1019.5
20260506142006 36 272 7.8 8.7 0.00 0.01 0.00 68 1019.6
20260506141506 36 248 6.1 8.7 0.00 0.01 0.00 69 1019.6
20260506141006 35 250 6.1 8.7 0.00 0.01 0.00 67 1019.6
20260506140006 34 234 4.3 6.1 0.00 0.01 0.00 68 1019.7
20260506135512 34 237 4.3 7.8 0.00 0.01 0.00 69 1019.7
20260506135006 33 234 5.2 8.7 0.00 0.01 0.00 68 1019.8
20260506134506 33 231 6.1 8.7 0.00 0.01 0.00 68 1019.8
20260506134006 33 227 5.2 8.7 0.00 0.01 0.00 69 1019.8
20260506133506 32 211 5.2 8.7 0.00 0.01 0.00 69 1019.9
20260506133006 32 232 6.1 8.7 0.00 0.01 0.00 70 1019.8
20260506132506 32 231 6.1 8.7 0.00 0.01 0.00 71 1019.8
20260506132006 31 233 7.0 8.7 0.00 0.01 0.00 71 1019.8
20260506131506 31 227 5.2 7.8 0.00 0.01 0.00 72 1019.8
20260506131006 31 212 4.3 8.7 0.00 0.01 0.00 73 1019.8
20260506130006 30 204 6.1 8.7 0.00 0.01 0.00 73 1019.8
20260506125506 30 218 5.2 8.7 0.00 0.01 0.00 74 1019.7
20260506125006 30 208 5.2 7.8 0.00 0.01 0.00 74 1019.7
20260506124505 29 223 4.3 8.7 0.00 0.01 0.00 75 1019.8
20260506124006 29 208 5.2 8.7 0.00 0.01 0.00 75 1019.8
20260506123506 29 207 5.2 7.8 0.00 0.01 0.00 76 1019.8
20260506123006 28 208 5.2 7.8 0.00 0.01 0.00 77 1019.8
20260506122505 28 230 5.2 7.0 0.00 0.01 0.00 78 1019.8
20260506122006 28 237 5.2 7.0 0.00 0.01 0.00 78 1019.8
20260506121506 27 240 5.2 7.0 0.00 0.01 0.00 78 1019.7
20260506121006 27 234 5.2 7.0 0.00 0.01 0.00 78 1019.7
20260506120005 27 231 5.2 6.1 0.00 0.01 0.00 78 1019.8
20260506115505 28 235 4.3 6.1 0.00 0.01 0.00 78 1019.7
20260506115006 28 233 4.3 7.0 0.00 0.01 0.00 77 1019.7
20260506114006 28 234 5.2 7.0 0.00 0.01 0.00 77 1019.7
20260506113506 28 231 5.2 7.0 0.00 0.01 0.00 77 1019.7
20260506113006 29 233 4.3 7.0 0.00 0.01 0.00 77 1019.7
20260506112505 29 230 4.3 6.1 0.00 0.01 0.00 77 1019.8
20260506112006 29 217 4.3 6.1 0.00 0.01 0.00 77 1019.8
20260506111505 29 216 4.3 7.0 0.00 0.01 0.00 77 1019.8
20260506111006 29 231 5.2 7.0 0.00 0.01 0.00 77 1019.8
20260506110005 29 211 5.2 8.7 0.00 0.01 0.00 78 1019.8
20260506105506 29 205 6.1 7.8 0.00 0.01 0.00 78 1019.9
20260506105006 29 203 5.2 7.8 0.00 0.01 0.00 78 1019.9
20260506104505 29 210 5.2 10.4 0.00 0.01 0.00 78 1019.9
20260506104006 29 206 5.2 10.4 0.00 0.01 0.00 78 1019.9
20260506103506 29 203 7.0 10.4 0.00 0.01 0.00 78 1019.9
20260506103006 30 204 6.1 8.7 0.00 0.01 0.00 78 1019.9
20260506102506 29 207 5.2 8.7 0.00 0.01 0.00 79 1019.9
20260506102006 29 207 5.2 8.7 0.00 0.01 0.00 80 1019.9
20260506101505 29 200 6.1 8.7 0.00 0.01 0.00 80 1019.9
20260506101006 30 217 4.3 6.1 0.00 0.01 0.00 80 1019.9
20260506100006 30 218 4.3 7.0 0.00 0.01 0.00 80 1019.9
20260506094506 30 200 5.2 7.8 0.00 0.01 0.00 79 1020.0
20260506094006 30 211 4.3 7.0 0.00 0.01 0.00 79 1020.0
20260506093506 30 206 4.3 7.0 0.00 0.01 0.00 80 1020.0
20260506093006 30 215 4.3 6.1 0.00 0.01 0.00 81 1020.1
20260506092505 30 212 4.3 6.1 0.00 0.01 0.00 81 1020.1
20260506092005 31 217 4.3 6.1 0.00 0.01 0.00 81 1020.1
20260506091505 31 239 4.3 6.1 0.00 0.01 0.00 81 1020.1
20260506085505 30 224 4.3 6.1 0.00 0.01 0.00 83 1020.1
20260506084505 30 214 2.6 6.1 0.00 0.01 0.00 83 1020.1
20260506084005 30 203 4.3 6.1 0.00 0.01 0.00 82 1020.1
20260506083505 30 207 3.5 6.1 0.00 0.01 0.00 82 1020.1
20260506083006 30 240 4.3 5.2 0.00 0.01 0.00 82 1020.1
20260506082505 30 233 4.3 7.0 0.00 0.01 0.00 81 1020.1
20260506082006 31 239 4.3 7.0 0.00 0.01 0.00 80 1020.1
20260506081506 31 249 6.1 7.8 0.00 0.01 0.00 81 1020.1
20260506081006 31 244 4.3 7.8 0.00 0.01 0.00 82 1020.1
20260506073505 30 236 4.3 4.3 0.00 0.01 0.00 83 1020.1
20260506073005 31 233 2.6 4.3 0.00 0.01 0.00 82 1020.2
20260506072506 31 237 4.3 4.3 0.00 0.01 0.00 82 1020.2
20260506072005 31 233 4.3 4.3 0.00 0.01 0.00 83 1020.2
20260506071505 31 237 2.6 2.6 0.00 0.01 0.00 84 1020.2
20260506071006 31 238 1.7 4.3 0.00 0.01 0.00 84 1020.2
20260506062505 31 250 1.7 4.3 0.00 0.01 0.00 82 1020.4
20260506062005 32 251 2.6 7.0 0.00 0.01 0.00 81 1020.4
20260506061505 32 247 4.3 7.0 0.00 0.01 0.00 80 1020.4
20260506061006 33 209 2.6 7.8 0.00 0.01 0.00 80 1020.2
20260506051006 33 224 4.3 7.0 0.00 0.01 0.01 82 1020.0
20260506044505 34 213 4.3 5.2 0.00 0.01 0.01 81 1020.1
20260506044005 34 203 2.6 5.2 0.00 0.01 0.01 81 1020.1
20260506043505 34 199 4.3 6.1 0.00 0.01 0.01 81 1020.1
20260506043005 34 199 4.3 6.1 0.00 0.01 0.01 81 1020.1
20260506042505 33 197 4.3 5.2 0.00 0.01 0.01 81 1020.1
20260506042005 33 195 4.3 5.2 0.00 0.01 0.01 79 1020.1
20260506041505 34 196 4.3 4.3 0.00 0.01 0.01 78 1020.0
20260506041006 34 217 2.6 4.3 0.00 0.01 0.01 77 1020.0
20260506040005 34 295 0.9 2.6 0.00 0.01 0.01 74 1020.0
20260506035505 35 279 1.7 2.6 0.00 0.01 0.01 75 1019.9
20260506035005 35 282 1.7 2.6 0.00 0.01 0.01 76 1019.9
20260506034506 35 274 2.6 2.6 0.00 0.01 0.01 76 1019.9
20260506034006 35 280 2.6 2.6 0.00 0.01 0.01 76 1019.9
20260506033505 35 281 1.7 2.6 0.00 0.01 0.01 76 1019.8
20260506031005 35 319 0.9 2.6 0.00 0.01 0.01 73 1019.5
20260506030005 36 326 0.0 1.7 0.00 0.01 0.01 71 1019.4
20260506025505 36 323 0.0 2.6 0.00 0.01 0.01 71 1019.4
20260506024505 36 331 1.7 5.2 0.00 0.01 0.01 71 1019.1
20260506023505 37 323 2.6 5.2 0.00 0.01 0.01 68 1019.0
20260506022505 38 343 4.3 5.2 0.00 0.01 0.01 64 1018.8
20260506022006 38 5 2.6 5.2 0.00 0.01 0.01 60 1018.7
20260506021505 38 8 2.6 7.8 0.00 0.01 0.01 60 1018.7
20260506021005 39 11 4.3 10.4 0.00 0.01 0.01 60 1018.6
20260506020005 39 351 6.1 10.4 0.00 0.01 0.01 59 1018.5
20260506015505 39 2 6.1 11.3 0.00 0.01 0.01 58 1018.4
20260506014505 39 358 7.0 14.8 0.00 0.01 0.01 58 1018.2
20260506014005 39 355 8.7 15.6 0.00 0.01 0.01 58 1018.1
20260506013005 40 359 9.6 13.0 0.00 0.01 0.01 57 1018.1
20260506012505 41 5 5.2 11.3 0.00 0.01 0.01 55 1018.1
20260506012005 41 357 6.1 10.4 0.00 0.01 0.01 56 1018.0
20260506011505 41 13 2.6 10.4 0.00 0.01 0.01 59 1017.9
20260506011005 41 2 4.3 10.4 0.00 0.01 0.01 58 1017.8
20260506010005 42 20 5.2 8.7 0.00 0.01 0.01 59 1017.7
20260506005505 41 9 5.2 8.7 0.00 0.01 0.01 60 1017.8
20260506005005 41 2 4.3 7.8 0.00 0.01 0.01 62 1017.7
20260506004506 41 358 2.6 7.8 0.00 0.01 0.01 63 1017.7
20260506004006 41 290 3.5 7.8 0.00 0.01 0.01 65 1017.7
20260506003505 40 329 1.7 7.8 0.00 0.01 0.01 66 1017.6
20260506002505 39 336 4.3 10.4 0.00 0.01 0.01 68 1017.6
20260506001505 39 332 4.3 8.7 0.00 0.01 0.01 70 1017.6
20260506001005 39 328 5.2 8.7 0.00 0.01 0.01 71 1017.5
20260506000005 38 320 5.2 15.6 0.00 0.01 0.01 74 1017.6
20260505235505 37 336 7.8 15.6 0.00 0.01 0.01 74 1017.7
20260505234505 37 331 9.6 13.0 0.00 0.01 0.01 75 1017.5
20260505234005 37 338 8.7 13.9 0.00 0.01 0.01 76 1017.5
20260505233005 36 335 10.4 19.1 0.00 0.01 0.01 79 1017.3
20260505232505 36 347 10.4 20.0 0.00 0.01 0.01 79 1017.2
20260505232005 36 346 15.6 20.9 0.00 0.01 0.01 78 1017.2
20260505231505 37 352 13.9 20.9 0.00 0.01 0.01 74 1017.0
20260505231005 41 347 12.2 17.4 0.00 0.01 0.01 65 1017.0
20260505230005 43 195 4.3 6.1 0.00 0.01 0.01 61 1016.1
20260505225005 43 189 3.5 10.4 0.00 0.01 0.01 59 1016.1
20260505224505 44 192 5.2 10.4 0.00 0.01 0.01 61 1016.1
20260505224005 44 161 3.5 7.8 0.00 0.01 0.01 63 1016.1
20260505223505 43 192 5.2 8.7 0.00 0.01 0.01 64 1016.2
20260505222505 43 185 5.2 10.4 0.00 0.01 0.01 65 1016.1
20260505222006 43 166 6.1 10.4 0.00 0.01 0.01 64 1016.1
20260505221505 43 202 5.2 8.7 0.00 0.01 0.01 67 1016.1
20260505221005 43 165 6.1 8.7 0.00 0.01 0.01 68 1016.1
20260505220005 42 189 4.3 8.7 0.00 0.01 0.01 72 1016.2
20260505215505 41 197 5.2 8.7 0.00 0.01 0.01 74 1016.3
20260505214005 40 197 5.2 10.4 0.00 0.01 0.01 77 1016.2
20260505213005 39 243 7.0 10.4 0.00 0.01 0.01 82 1016.2
20260505212505 39 234 6.1 10.4 0.00 0.01 0.01 85 1016.2
20260505211505 38 234 5.2 10.4 0.00 0.01 0.01 86 1016.2
20260505211005 37 203 4.3 10.4 0.00 0.01 0.01 86 1016.4
20260505210004 37 216 4.3 17.4 0.00 0.01 0.01 85 1016.5
20260505205505 37 233 6.1 17.4 0.00 0.01 0.01 82 1016.6
20260505205005 37 247 7.0 12.2 0.00 0.01 0.01 84 1016.4
20260505204505 37 224 5.2 7.8 0.00 0.01 0.01 84 1016.3
20260505204005 37 244 5.2 8.7 0.00 0.01 0.01 84 1016.3
20260505203505 37 241 5.2 8.7 0.00 0.01 0.01 84 1016.2
20260505203005 37 220 5.2 8.7 0.01 0.01 0.01 84 1016.2
20260505202505 38 238 5.2 7.8 0.01 0.01 0.01 84 1016.3
20260505202006 38 206 4.3 7.0 0.01 0.01 0.01 84 1016.4
20260505201005 37 273 4.3 6.1 0.01 0.01 0.01 82 1016.4
20260505200005 37 316 1.7 7.0 0.01 0.01 0.01 87 1016.5
20260505195505 37 320 2.6 4.3 0.01 0.01 0.01 88 1016.5
20260505194505 36 291 2.6 7.8 0.01 0.01 0.01 88 1016.5
20260505194006 36 344 6.1 8.7 0.01 0.01 0.01 87 1016.6
20260505193506 36 333 5.2 8.7 0.01 0.01 0.01 88 1016.7
20260505192505 36 4 4.3 10.4 0.00 0.00 0.00 86 1016.8
20260505192005 37 2 6.1 10.4 0.00 0.00 0.00 85 1016.9
20260505191505 37 22 5.2 8.7 0.00 0.00 0.00 85 1016.8
20260505191005 37 27 5.2 8.7 0.00 0.00 0.00 84 1016.8
20260505185505 38 350 8.7 18.2 0.00 0.00 0.00 74 1016.6
20260505185005 39 10 8.7 19.1 0.00 0.00 0.00 70 1016.4
20260505184505 41 352 12.2 19.1 0.00 0.00 0.00 59 1016.2
20260505184005 42 329 7.8 13.0 0.00 0.00 0.00 56 1015.9
20260505183505 42 335 7.8 11.3 0.00 0.00 0.00 57 1015.8
20260505183006 42 332 4.3 10.4 0.00 0.00 0.00 56 1015.8
20260505182504 42 328 5.2 12.2 0.00 0.00 0.00 55 1015.8
20260505182005 43 349 6.1 12.2 0.00 0.00 0.00 54 1015.8
20260505181505 43 302 6.1 17.4 0.00 0.00 0.00 54 1015.8
20260505180005 45 330 4.3 10.4 0.00 0.00 0.00 45 1015.6
20260505175505 45 164 1.7 7.0 0.00 0.00 0.00 46 1015.6
20260505175005 45 297 4.3 7.0 0.00 0.00 0.00 47 1015.8
20260505174505 44 240 3.5 10.4 0.00 0.00 0.00 46 1015.7
20260505174005 43 153 1.7 10.4 0.00 0.00 0.00 50 1015.8
20260505173505 43 254 4.3 10.4 0.00 0.00 0.00 50 1015.8
20260505173005 43 260 4.3 11.3 0.00 0.00 0.00 50 1015.9
20260505172005 42 338 2.6 8.7 0.00 0.00 0.00 50 1016.1
20260505171505 42 287 3.5 7.0 0.00 0.00 0.00 51 1016.2
20260505171006 41 304 2.6 6.1 0.00 0.00 0.00 52 1016.2
20260505170005 40 336 0.9 8.7 0.00 0.00 0.00 51 1016.3
20260505164504 41 271 1.7 6.1 0.00 0.00 0.00 52 1016.3
20260505163505 40 313 0.9 4.3 0.00 0.00 0.00 51 1016.4
20260505163006 40 320 2.6 4.3 0.00 0.00 0.00 52 1016.4
20260505162006 40 319 0.9 4.3 0.00 0.00 0.00 52 1016.4
20260505161505 40 327 1.7 7.0 0.00 0.00 0.00 52 1016.4
20260505161005 40 322 3.5 7.0 0.00 0.00 0.00 52 1016.3